When you browse on this site, cookies collect data to enhance your experience and personalize the content and advertising you see.
Visit our Privacy Policy to learn more. By continuing to use the site, you agree to this use of cookies and data.
  • In Österreich
  • Länderverzeichnis
  • Für 7 Tage
  • Wassertemperatur
  • Satellitenkarten
  • Wetterkarte
  • News
  • Widgets
  • user-avatar
    Anmelden

    Stündliche Wetter Malanje

    Heute, 19 Januar, Samstag

    Zeit Temperatur Niederschläge Wind Luftdruck Luftfeuchtigkeit
    00:00 +19°C° 1 mm 2 m/S 665 mmHg 98%
    01:00 +19°C° 1 mm 2 m/S 665 mmHg 99%
    02:00 +19°C° 0.8 mm 2 m/S 665 mmHg 98%
    03:00 +19°C° 0.8 mm 2 m/S 665 mmHg 98%
    04:00 +19°C° 0.8 mm 3 m/S 665 mmHg 98%
    05:00 +19°C° 0.5 mm 3 m/S 665 mmHg 98%
    06:00 +19°C° 0.5 mm 2 m/S 666 mmHg 98%
    07:00 +19°C° 0.5 mm 2 m/S 666 mmHg 98%
    08:00 +19°C° 0.3 mm 2 m/S 666 mmHg 96%
    09:00 +20°C° 0.3 mm 3 m/S 667 mmHg 94%
    10:00 +21°C° 0.3 mm 3 m/S 667 mmHg 93%
    11:00 +22°C° 0.2 mm 3 m/S 667 mmHg 87%
    12:00 +24°C° 0.2 mm 3 m/S 667 mmHg 80%
    13:00 +25°C° 0.2 mm 3 m/S 666 mmHg 74%
    14:00 +24°C° 0.6 mm 3 m/S 666 mmHg 80%
    15:00 +24°C° 0.6 mm 2 m/S 665 mmHg 85%
    16:00 +23°C° 0.6 mm 2 m/S 665 mmHg 91%
    17:00 +21°C° 0.1 mm 2 m/S 665 mmHg 93%
    18:00 +21°C° 0.1 mm 1 m/S 665 mmHg 94%
    19:00 +20°C° 0.1 mm 1 m/S 665 mmHg 96%
    20:00 +20°C° 0 mm 1 m/S 666 mmHg 96%
    21:00 +20°C° 0 mm 1 m/S 666 mmHg 96%
    22:00 +19°C° 0 mm 1 m/S 666 mmHg 96%
    23:00 +19°C° 0 mm 1 m/S 666 mmHg 96%

    Morgen, 20 Januar, Sonntag

    Zeit Temperatur Niederschläge Wind Luftdruck Luftfeuchtigkeit
    00:00 +18°C° 0 mm 1 m/S 665 mmHg 95%
    01:00 +18°C° 0 mm 1 m/S 665 mmHg 95%
    02:00 +18°C° 0 mm 1 m/S 665 mmHg 94%
    03:00 +18°C° 0 mm 1 m/S 665 mmHg 94%
    04:00 +16°C° 0 mm 1 m/S 665 mmHg 93%
    05:00 +18°C° 0 mm 1 m/S 665 mmHg 92%
    06:00 +18°C° 0 mm 1 m/S 666 mmHg 92%
    07:00 +19°C° 0 mm 1 m/S 666 mmHg 91%
    08:00 +20°C° 0 mm 1 m/S 667 mmHg 84%
    09:00 +22°C° 0 mm 1 m/S 667 mmHg 76%
    10:00 +24°C° 0 mm 2 m/S 668 mmHg 69%
    11:00 +24°C° 0 mm 2 m/S 667 mmHg 67%
    12:00 +25°C° 0 mm 2 m/S 667 mmHg 65%
    13:00 +26°C° 0 mm 2 m/S 666 mmHg 63%
    14:00 +26°C° 0 mm 2 m/S 666 mmHg 65%
    15:00 +26°C° 0 mm 2 m/S 665 mmHg 67%
    16:00 +26°C° 0 mm 2 m/S 664 mmHg 69%
    17:00 +24°C° 0 mm 2 m/S 665 mmHg 73%
    18:00 +23°C° 0 mm 1 m/S 665 mmHg 78%
    19:00 +21°C° 0 mm 1 m/S 665 mmHg 83%
    20:00 +21°C° 0 mm 1 m/S 665 mmHg 84%
    21:00 +20°C° 0 mm 1 m/S 666 mmHg 86%
    22:00 +18°C° 0 mm 0 m/S 667 mmHg 88%
    23:00 +19°C° 0 mm 1 m/S 666 mmHg 89%

    übermorgen, 21 Januar, Montag

    Zeit Temperatur Niederschläge Wind Luftdruck Luftfeuchtigkeit
    00:00 +19°C° 0 mm 1 m/S 666 mmHg 90%
    01:00 +18°C° 0 mm 1 m/S 665 mmHg 91%
    02:00 +18°C° 0 mm 1 m/S 665 mmHg 90%
    03:00 +18°C° 0 mm 1 m/S 665 mmHg 90%
    04:00 +18°C° 0 mm 1 m/S 665 mmHg 89%
    05:00 +18°C° 0 mm 1 m/S 665 mmHg 88%
    06:00 +19°C° 0 mm 1 m/S 666 mmHg 87%
    07:00 +19°C° 0 mm 1 m/S 666 mmHg 85%
    08:00 +21°C° 0 mm 1 m/S 667 mmHg 78%
    09:00 +24°C° 0 mm 1 m/S 667 mmHg 71%
    10:00 +26°C° 0 mm 1 m/S 668 mmHg 63%
    11:00 +27°C° 0 mm 2 m/S 667 mmHg 60%
    12:00 +28°C° 0 mm 2 m/S 667 mmHg 57%
    13:00 +29°C° 0 mm 2 m/S 666 mmHg 54%
    14:00 +28°C° 0 mm 3 m/S 665 mmHg 56%
    15:00 +28°C° 0 mm 3 m/S 665 mmHg 59%
    16:00 +28°C° 0 mm 3 m/S 664 mmHg 62%
    17:00 +26°C° 0 mm 2 m/S 664 mmHg 68%
    18:00 +24°C° 0 mm 2 m/S 664 mmHg 75%
    19:00 +22°C° 0 mm 1 m/S 665 mmHg 81%
    20:00 +22°C° 0 mm 1 m/S 665 mmHg 83%
    21:00 +21°C° 0 mm 1 m/S 666 mmHg 84%
    22:00 +20°C° 0 mm 1 m/S 666 mmHg 86%
    23:00 +20°C° 0 mm 1 m/S 666 mmHg 87%

    22 Januar, Dienstag

    Zeit Temperatur Niederschläge Wind Luftdruck Luftfeuchtigkeit
    00:00 +19°C° 0 mm 1 m/S 666 mmHg 88%
    01:00 +19°C° 0 mm 1 m/S 665 mmHg 90%
    02:00 +18°C° 0 mm 1 m/S 665 mmHg 92%
    03:00 +18°C° 0 mm 1 m/S 665 mmHg 94%
    04:00 +18°C° 0 mm 1 m/S 664 mmHg 96%
    05:00 +18°C° 0 mm 1 m/S 665 mmHg 94%
    06:00 +19°C° 0 mm 1 m/S 666 mmHg 92%
    07:00 +20°C° 0 mm 1 m/S 666 mmHg 91%
    08:00 +20°C° 0 mm 2 m/S 667 mmHg 82%
    09:00 +23°C° 0 mm 2 m/S 667 mmHg 73%
    10:00 +25°C° 0 mm 3 m/S 668 mmHg 63%
    11:00 +26°C° 0 mm 3 m/S 667 mmHg 60%
    12:00 +27°C° 0 mm 3 m/S 666 mmHg 56%
    13:00 +29°C° 0 mm 4 m/S 666 mmHg 52%
    14:00 +28°C° 0.2 mm 4 m/S 665 mmHg 56%
    15:00 +28°C° 0.2 mm 3 m/S 664 mmHg 59%
    16:00 +28°C° 0.2 mm 3 m/S 664 mmHg 63%
    17:00 +26°C° 0.1 mm 3 m/S 664 mmHg 69%
    18:00 +24°C° 0.1 mm 2 m/S 664 mmHg 75%
    19:00 +22°C° 0.1 mm 1 m/S 664 mmHg 80%
    20:00 +20°C° 0.1 mm 2 m/S 665 mmHg 82%
    21:00 +20°C° 0.1 mm 2 m/S 665 mmHg 84%
    22:00 +20°C° 0.1 mm 2 m/S 666 mmHg 85%
    23:00 +19°C° 0 mm 2 m/S 665 mmHg 85%

    23 Januar, Mittwoch

    Zeit Temperatur Niederschläge Wind Luftdruck Luftfeuchtigkeit
    00:00 +20°C° 0 mm 1 m/S 665 mmHg 84%
    01:00 +20°C° 0 mm 1 m/S 665 mmHg 84%
    02:00 +20°C° 0 mm 1 m/S 664 mmHg 86%
    03:00 +19°C° 0 mm 1 m/S 664 mmHg 88%
    04:00 +19°C° 0 mm 1 m/S 664 mmHg 90%
    05:00 +19°C° 0.2 mm 1 m/S 665 mmHg 92%
    06:00 +19°C° 0.2 mm 1 m/S 665 mmHg 93%
    07:00 +19°C° 0.2 mm 1 m/S 665 mmHg 95%
    08:00 +19°C° 0 mm 2 m/S 666 mmHg 89%
    09:00 +20°C° 0 mm 3 m/S 666 mmHg 83%
    10:00 +22°C° 0 mm 3 m/S 667 mmHg 77%
    11:00 +22°C° 0 mm 3 m/S 666 mmHg 74%
    12:00 +24°C° 0 mm 3 m/S 666 mmHg 71%
    13:00 +25°C° 0 mm 4 m/S 665 mmHg 69%
    14:00 +25°C° 0 mm 3 m/S 665 mmHg 70%
    15:00 +25°C° 0 mm 3 m/S 664 mmHg 71%
    16:00 +24°C° 0 mm 3 m/S 663 mmHg 73%
    17:00 +22°C° 0 mm 3 m/S 664 mmHg 78%
    18:00 +21°C° 0 mm 2 m/S 664 mmHg 83%
    19:00 +20°C° 0 mm 2 m/S 664 mmHg 88%
    20:00 +19°C° 0 mm 2 m/S 664 mmHg 89%
    21:00 +20°C° 0 mm 1 m/S 664 mmHg 90%
    22:00 +20°C° 0 mm 1 m/S 665 mmHg 91%
    23:00 +19°C° 0 mm 1 m/S 664 mmHg 91%

    24 Januar, Donnerstag

    Zeit Temperatur Niederschläge Wind Luftdruck Luftfeuchtigkeit
    00:00 +19°C° 0 mm 1 m/S 664 mmHg 91%
    01:00 +19°C° 0 mm 1 m/S 664 mmHg 91%
    02:00 +19°C° 0 mm 1 m/S 663 mmHg 91%
    03:00 +18°C° 0 mm 1 m/S 663 mmHg 91%
    04:00 +18°C° 0 mm 1 m/S 663 mmHg 91%
    05:00 +19°C° 0 mm 1 m/S 664 mmHg 90%
    06:00 +18°C° 0 mm 2 m/S 664 mmHg 89%
    07:00 +18°C° 0 mm 2 m/S 664 mmHg 87%
    08:00 +20°C° 0 mm 2 m/S 665 mmHg 80%
    09:00 +23°C° 0 mm 2 m/S 665 mmHg 73%
    10:00 +25°C° 0 mm 3 m/S 666 mmHg 65%
    11:00 +26°C° 0 mm 3 m/S 665 mmHg 62%
    12:00 +28°C° 0 mm 2 m/S 665 mmHg 59%
    13:00 +29°C° 0 mm 2 m/S 664 mmHg 55%
    14:00 +28°C° 0.7 mm 2 m/S 664 mmHg 62%
    15:00 +28°C° 0.7 mm 2 m/S 663 mmHg 69%
    16:00 +27°C° 0.7 mm 2 m/S 663 mmHg 76%
    17:00 +25°C° 1.8 mm 2 m/S 663 mmHg 81%
    18:00 +23°C° 1.8 mm 2 m/S 663 mmHg 87%
    19:00 +20°C° 1.8 mm 2 m/S 663 mmHg 92%
    20:00 +20°C° 0.3 mm 2 m/S 663 mmHg 93%
    21:00 +20°C° 0.3 mm 2 m/S 664 mmHg 94%
    22:00 +19°C° 0.3 mm 2 m/S 664 mmHg 95%
    23:00 +19°C° 0 mm 2 m/S 664 mmHg 96%
    Mehr zeigen